Location: Poughquag
(41.6090°N, 73.6820°W)
Time: 10:42:51
(UTC-04:00)

Envisat - Visible Passes

Search period start: 21 July 2017 00:00
Search period end: 31 July 2017 00:00
Orbit: 764 x 766 km, 98.2° (Epoch: 20 July)

Date Brightness Start Highest point End Pass type
(mag) Time Alt. Az. Time Alt. Az. Time Alt. Az.
21 Jul 3.5 21:04:30 10° S 21:09:31 63° WSW 21:14:35 10° NNW visible
22 Jul 5.5 22:09:08 10° SW 22:12:15 16° W 22:15:23 10° NW visible
23 Jul 4.4 21:30:36 10° SSW 21:35:14 36° W 21:39:54 10° NNW visible
24 Jul 3.2 20:53:21 10° S 20:58:25 80° WSW 21:03:33 10° NNW visible
25 Jul 5.3 21:57:18 10° SW 22:01:03 21° W 22:04:49 10° NW visible
26 Jul 4.0 21:19:16 10° S 21:24:06 45° W 21:28:59 10° NNW visible
27 Jul 3.0 20:42:17 10° SSE 20:47:20 82° ENE 20:52:27 10° N visible
27 Jul 5.7 22:25:24 10° WSW 22:26:58 11° W 22:28:32 10° WNW visible
28 Jul 5.0 21:45:40 10° SSW 21:49:52 26° W 21:54:06 10° NW visible
29 Jul 3.6 21:07:59 10° S 21:12:59 57° W 21:18:00 10° NNW visible
30 Jul 5.6 22:12:57 10° SW 22:15:44 15° W 22:18:32 10° WNW visible
